User: anonymous   Login
Location: Unspecified
(0.0000°N, 0.0000°E)
Time: 12:40:09
(UTC+00:00)
Language:

STSS ATRR (USA 205) - Orbit

View from above orbital plane
View from above orbital plane
View from above satellite
View from above satellite

Ground track
Ground track

The orbit data is extracted from the following two-line orbital elements,

1 34903U 09023A   14273.94001868 0.00000080  00000-0  48211-4 0    07
2 34903  98.9260   9.8460 0006000 139.5852 220.4147 14.06722387    01
Epoch (UTC): 30 September 2014 22:33:37
Eccentricity: 0.0006000
inclination: 98.9260°
perigee height: 866 km
apogee height: 875 km
right ascension of ascending node: 9.8460°
argument of perigee: 139.5852°
revolutions per day: 14.06722387
mean anomaly at epoch: 220.4147°
orbit number at epoch: 0

The dashed part of the orbit path shows where the satellite is in the earth's shadow,  

DLR